This is the latest recevied weather packets stored in our database for station/object SP2ARK-10. If no packets are shown the sender has not sent any weather packets the latest 10 day(s).
| Time | Temp. | Humidity | Pressure | Rain* | Wind** | Luminosity | Snow |
|---|---|---|---|---|---|---|---|
| 1777504559 | 6.67° C | 62% | 1036.7 hPa | - | - | - | - |
| 1777503658 | 6.67° C | 61% | 1036.7 hPa | - | - | - | - |
| 1777502757 | 7.22° C | 61% | 1036.7 hPa | - | - | - | - |
| 1777501857 | 7.22° C | 60% | 1036.6 hPa | - | - | - | - |
| 1777500957 | 7.78° C | 59% | 1036.6 hPa | - | - | - | - |
| 1777500056 | 7.78° C | 59% | 1036.6 hPa | - | - | - | - |
| 1777499156 | 8.33° C | 59% | 1036.6 hPa | - | - | - | - |
| 1777498257 | 8.33° C | 59% | 1036.4 hPa | - | - | - | - |
| 1777497354 | 8.89° C | 58% | 1036.4 hPa | - | - | - | - |
| 1777496453 | 8.89° C | 58% | 1036.3 hPa | - | - | - | - |
| 1777495553 | 9.44° C | 57% | 1036.2 hPa | - | - | - | - |
| 1777495425 | 9.44° C | 57% | 1036.1 hPa | - | - | - | - |
| 1777494653 | 9.44° C | 57% | 1036.1 hPa | - | - | - | - |
| 1777493752 | 10° C | 57% | 1035.9 hPa | - | - | - | - |
| 1777492852 | 10° C | 56% | 1035.8 hPa | - | - | - | - |
| 1777491952 | 10.56° C | 56% | 1035.7 hPa | - | - | - | - |
| 1777491051 | 11.11° C | 56% | 1035.7 hPa | - | - | - | - |
| 1777490150 | 11.11° C | 56% | 1035.5 hPa | - | - | - | - |
| 1777489248 | 11.11° C | 60% | 1035.5 hPa | - | - | - | - |
| 1777488347 | 11.11° C | 54% | 1035.3 hPa | - | - | - | - |
| 1777487446 | 11.67° C | 53% | 1035 hPa | - | - | - | - |
| 1777486546 | 11.67° C | 52% | 1035 hPa | - | - | - | - |
| 1777485644 | 11.67° C | 51% | 1034.9 hPa | - | - | - | - |
| 1777484744 | 12.22° C | 51% | 1035 hPa | - | - | - | - |
| 1777483843 | 12.78° C | 50% | 1034.9 hPa | - | - | - | - |
* Rain since midnight (hover to see other rain measurements)
** Current wind speed in m/s (hover to see current wind gust speed)